CZ-6A DEB

Satellite information

Favourite Embed

Satellite Type and Status

DEBRISIN ORBIT

Key statistics

Satellite CZ-6A DEB at a glance.

Uptime

274

Days in orbit

Revolutions

≈ 14.5

Per day

Orbit

LEO

Low Earth Orbit

Inclination

89.0

Latest

Satellite identification and parameters

Extended collection of information and parameters for CZ-6A DEB.

Object identification

Identified? True

Debris? True

Object name: CZ-6A DEB

International designator: 2024-140LG

Object number (NORAD): 60901

Object ID (CCSDS): 60901

Country: PEOPLES REPUBLIC OF CHINA (PRC)

Current information (Y/N): Y

RCS size: MEDIUM

Orbital parameters

Period: 99.191 minutes

Inclination: 88.981 deg

SMA: 7098.105 km

Apoapsis: 778.198 km

Periapsis: 661.742 km

RAAN: 318.4167 deg

Eccentricy: 0.0082033

Argument of periapsis: 157.4221 deg

Mean anomaly: 203.0631 deg

Mean motion: 14.51740912 rev/day

Mean motion (dot): 0.00008789 rev/day2

B* drag term: 0.0020896 1/REarth

Two-line elements (TLE)

Creation date: May 7, 2025, 3:14 a.m.

Reference frame: TEME

Reference center: EARTH

Epoch: May 6, 2025, 1:15 p.m. UTC

TLE line 0: 0 CZ-6A DEB

TLE line 1: 1 60901U 24140LG 25126.55211495 .00008789 00000-0 20896-2 0 9994

TLE line 2: 2 60901 88.9810 318.4167 0082033 157.4221 203.0631 14.51740912 37795

Live tracking on map

Real-time ground track for satellite CZ-6A DEB.

In-orbit conjunctions

A list of the most updated potential collisions computed for object CZ-6A DEB.

Target Orbit TCA Probability of collision Miss distance Type
SL-8 R/B LEO 2025-03-30 06:19:35 0.0001952278 209.0 (m) ROCKET BODY
FENGYUN 1C DEB SSO 2025-01-28 18:59:19 0.0001037151 422.0 (m) DEBRIS
WESTFORD NEEDLES * HEO 2025-01-13 09:43:27 0.0001431173 633.0 (m) DEBRIS
COSMOS 858 LEO 2024-11-25 01:13:39 0.0005983858 389.0 (m) PAYLOAD
FENGYUN 1C DEB SSO 2024-10-02 06:34:23 0.0002803117 273.0 (m) DEBRIS

Associated space launch

18 Low Earth Orbit communication satellites with Ku, Q and V band payloads for the G60 constellation operated by Shanghai Spacecom Satellite Technology (SSST) with funding backed by the Shanghai local government. Initial constellation will consist of 1296 satellites by 2027 with long term plans to expand it to 12000 satellites.

CZ-6A DEB was lifted into orbit during the mission ‘Long March 6A | G60 Polar Group 01’, on board a Long March 6A space rocket.

The launch took place on Aug. 6, 2024, 6:42 a.m. from Launch Complex 9A.

For more information about the launch, click the button.

Launch to space Long March 6A | G60 Polar Group 01
Long March 6A | G60 Polar Group 01

Agency: N/A

Status: Launch Successful

Launch date: Aug. 6, 2024, 6:42 a.m. UTC

Rocket: Long March 6A

Launch pad: Launch Complex 9A

Location: Taiyuan Satellite Launch Center, People's Republic of China

...

Latest news about this satellite

News about space launch
Brightness of first Chinese broadband constellation satellites alarms astronomers

The first satellites of a Chinese broadband constellation are significantly brighter than those of Western systems, posing a new challenge for astronomers.

News about space launch
Chinese rocket stage breaks up into cloud of more than 700 pieces of space debris

HELSINKI — A Chinese Long March 6A rocket’s upper stage has fragmented into a cloud of over 700 pieces of space debris, adding to concerns about long-term orbital safety. China […]

News about space launch
China's Thousand Sails Megaconstellation Kicks Off with Dangerous Debris Field

China's Thousand Sails Megaconstellation Kicks Off with Dangerous Debris Field


Newsletter sign-up

Weekly statistics, charts and insights to help you stay on top of the space industry.